CZ-4B R/B, 44888

Orbit data source: Space-Track

CZ-4B R/B, 44888 is space debris in SSO originally from a launch on Fri, 20 Dec 2019 UTC launched from the Taiyaun Space Center, China (TSC). Debris objects in space refer to the collection of defunct objects orbiting the Earth. Examples of debris include non-operational satellites, rocket bodies, and fragments generated from explosions, collisions, or faulty payload assembly.

Loading next visibility...
CZ-4B R/B details
Identifier
44888, 2019-093K
Orbit
SSO
Last TLE update8 hours ago
Origin
Flag of CNCNSA (CN / PRC)
ManufacturerSAST
MissionSpacecraft
Bus & MotorCZ-4 STAGE 3, Unknown motor
Mass~1,000 kg wet, ~1,000 kg dry
Launch date (UTC)
2019-12-20 (5 years ago)
Launch vehicleUnknown
Launch site
Taiyaun Space Center, China (TSC)
Object type
Payload
Rocket body
Debris
Shape & HBRCyl, 4.932 m
Radar Cross Section14.536 m², Large (>1 m²)

Expand to show TLE details & history

TLE from 8 hours ago
0 CZ-4B R/B
1 44888U 19093K   24361.53985333  .00042196  00000-0  84641-3 0  9997
2 44888  97.9548 177.4049 0065187 185.9375 174.1106 15.44246013278145
Epoch: 2024-12-26T12:57Z
Definitive object data (Epoch: 2024-12-26T12:57:23.327Z)
Latitude-0.0001°
Longitude-112.46007°
Altitude480.883 km
Speed7.6 km/s
True Right ascension11h 49m 37s
True Declination0° 00' 00"
Sunlit
Object was in daylight at TLE epoch
Visualization TLE readout
Latitude13.65642°
Longitude-114.03793°
Altitude479.707 km
Speed7.602 km/s
Apparent Right ascension10h 14m 22s
Apparent Declination-13° 21' 15"
Sunlit
Object is in daylight
Visualization observer readout
Local Sidereal Time20:10:25
Azimuth305.557° NW
Elevation-51.994°
Doppler factor1
Orbital elements
Apogee altitude474.936 km
Perigee altitude386.169 km
Semi-major axis6,808.689 km
Eccentricity0.0065187
Inclination97.9548°
RAAN177.4049°
Arg. of periapsis185.9375°
True anomaly174.18663°
Mean anomaly174.1106°
Eccentric anomaly174.14868°
Mean motion3.86321 °/min
BSTAR0.00084641
Orbital period93.19 mins
Loading maneuver chart data...
Loading historical data...
Loading historical data...
Loading historical data...
Loading historical data...
Loading historical data...
Loading historical data...
Loading historical data...

CZ-4B R/B Visibility forecast

Observer location: undefined°, undefined

Span
Click to sort rows by Start time (UTC) header in descending order
Start Az.
Max El. time (UTC)
Max El. Az.
Max El.
End time (UTC)
End Az.
5 mins2024-12-27 00:24:32.025Z35.676° NE2024-12-27 00:27:32.025Z115.921° SE26.175°2024-12-27 00:29:32.025Z160.148° S
4 mins2024-12-27 12:25:32.025Z205.839° SW2024-12-27 12:27:32.025Z270.64° WNW31.009°2024-12-27 12:29:32.025Z321.69° NNW
|